User: anonymous   Login
Location: Caltech
(34.1382°N, 118.1253°W)
Time: 10:25:04
(UTC-07:00)
Language:

Cosmos 1125 Rocket - Orbit

View from above orbital plane
View from above orbital plane
View from above satellite
View from above satellite

Ground track
Ground track

The orbit data is extracted from the following two-line orbital elements,

1 11511U 79078B   17228.46214057 +.00000115 +00000-0 +47943-4 0  9997
2 11511 074.0356 204.5140 0014403 072.3552 287.9173 14.36782583987017
Epoch (UTC): 16 August 2017 11:05:28
Eccentricity: 0.0014403
inclination: 74.0356°
perigee height: 759 km
apogee height: 779 km
right ascension of ascending node: 204.5140°
argument of perigee: 72.3552°
revolutions per day: 14.36782583
mean anomaly at epoch: 287.9173°
orbit number at epoch: 98701

The dashed part of the orbit path shows where the satellite is in the earth's shadow,  

DLR